Date,TemperatureHighF,TemperatureAvgF,TemperatureLowF,DewpointHighF,DewpointAvgF,DewpointLowF,HumidityHigh,HumidityAvg,HumidityLow,PressureMaxIn,PressureMinIn,WindSpeedMaxMPH,WindSpeedAvgMPH,GustSpeedMaxMPH,PrecipitationSumIn
2013-9-1,88.2,77.6,69.1,75.0,69.1,63.1,83,75,64,29.84,29.75,8,1,10,0.00
2013-9-2,87.1,77.2,70.6,74.4,69.9,66.2,87,78,64,29.79,29.70,14,0,14,0.11
2013-9-3,87.9,76.2,68.8,68.6,63.8,54.3,81,66,46,29.94,29.71,9,0,9,0.00
2013-9-4,85.5,69.6,60.3,64.3,56.6,51.7,73,64,49,30.06,29.94,10,0,10,0.00
2013-9-5,84.3,72.1,63.4,63.2,57.9,50.7,75,62,48,30.12,29.99,10,0,10,0.00
2013-9-6,80.7,66.2,59.4,54.1,49.8,46.3,70,56,40,30.25,30.12,10,1,10,0.00
2013-9-7,83.0,67.0,55.3,63.7,55.5,47.9,79,67,51,30.14,29.92,11,0,11,0.00
2013-9-8,85.0,73.7,65.0,66.7,61.7,57.0,78,66,54,30.04,29.85,9,0,9,0.00
2013-9-9,76.5,69.7,62.5,63.6,56.1,48.0,75,62,55,30.19,30.04,11,1,11,0.00
2013-9-10,92.2,76.9,68.6,76.5,68.1,62.3,81,74,59,30.17,30.07,8,1,8,0.00
2013-9-11,94.7,79.2,70.9,76.2,70.1,65.2,83,74,54,30.13,29.99,9,1,9,0.00
2013-9-12,86.4,74.9,68.8,74.1,66.7,63.6,85,76,61,30.00,29.73,17,1,17,0.34
2013-9-13,83.0,68.9,62.1,64.3,59.0,49.9,86,72,45,29.91,29.68,14,1,14,0.00
2013-9-14,78.3,61.1,52.9,54.1,47.7,43.5,71,62,42,30.15,29.91,7,0,7,0.00
2013-9-15,75.3,61.8,50.8,56.7,50.6,44.2,79,67,52,30.23,30.08,14,1,14,0.00
2013-9-16,71.3,64.2,57.6,58.3,54.9,49.8,76,72,62,30.22,30.02,8,0,8,0.00
2013-9-17,68.8,58.1,51.7,51.1,45.1,41.9,77,63,42,30.41,30.21,12,1,12,0.00
2013-9-18,70.4,57.6,47.5,51.2,45.7,40.7,78,65,44,30.34,30.18,9,0,9,0.00
2013-9-19,73.6,61.7,50.2,57.8,51.3,43.3,80,69,57,30.19,30.07,11,1,11,0.00
2013-9-20,76.0,64.2,53.1,60.8,54.4,46.8,81,71,58,30.09,29.96,10,1,10,0.00
2013-9-21,76.0,66.6,60.1,63.7,58.5,53.3,85,75,63,29.98,29.67,21,2,21,0.70
2013-9-22,68.4,63.0,56.5,58.9,54.8,47.3,86,75,62,29.93,29.70,14,0,14,0.00
2013-9-23,65.4,56.8,50.6,48.9,45.9,43.5,79,67,54,30.07,29.92,13,0,13,0.00
2013-9-24,69.5,57.0,46.8,50.7,46.2,40.3,78,68,51,30.10,29.93,15,0,15,0.00
2013-9-25,70.9,59.1,50.1,54.3,48.8,43.7,80,69,50,29.97,29.88,4,0,7,0.00
2013-9-26,70.2,61.1,54.2,57.4,52.1,47.4,82,72,59,30.06,29.91,10,0,10,0.00
2013-9-27,68.6,61.5,56.5,56.8,53.1,49.6,83,74,62,30.23,30.06,11,1,11,0.00
2013-9-28,68.6,61.7,55.5,56.5,52.3,49.2,81,71,60,30.30,30.20,12,1,12,0.00
2013-9-29,70.0,60.7,53.1,57.7,51.7,47.1,82,73,59,30.21,30.05,14,0,14,0.00
2013-9-30,70.2,60.3,51.9,56.8,51.2,46.0,82,72,60,30.09,29.98,14,0,14,0.00